CYGNUS OA-6

Last updated on Wed Jun 22 2016 09:36:56 GMT+0000 (Coordinated Universal Time)

1 41393U 16019A 16174.21470115 .00001558 00000-0 25326-4 0 9998 2 41393 51.6422 32.6903 0001300 158.0275 308.9494 15.59806337 14185
UTC large
Height (km)
Speed (km/s)
/
Latitude / Longitude
Inclination (degrees)
Orbital Period (minutes)
Azimuth
Elevation
Range (km)
Doppler Factor

Next 0 passes for location: London (51.5072 / 0.1276)

Sorry there are no passes over London.